Location: Andrest
(43.3200°N, 0.0641°E)
Time: 15:20:36
(UTC+00:00)

Cosmos 1500 - Pass Details

Date: 01 December 2020
Orbit: 498 x 519 km, 82.5° (Epoch: 24 January)

Event Time Altitude Azimuth Distance (km) Brightness Sun altitude
Rises 18:37:09 0° 345° (NNW) 2,637 6.9 -23.4°
Reaches altitude 10° 18:39:20 10° 340° (NNW) 1,749 6.0 -23.8°
Maximum altitude 18:43:01 46° 266° (W) 701 4.2 -24.4°
Drops below altitude 10° 18:46:41 10° 193° (SSW) 1,743 6.1 -25.1°
Sets 18:48:52 0° 187° (S) 2,627 7.0 -25.5°
